Location: St Paul
(33.9360°N, 83.4200°W)
Time: 20:10:28
(UTC-05:00)

Cosmos 1076 Rocket - Pass Details

Date: 06 October 2017
Orbit: 590 x 613 km, 82.5° (Epoch: 17 December)

Event Time Altitude Azimuth Distance (km) Brightness Sun altitude
Rises 20:34:45 0° 348° (NNW) 2,860 7.2 -18.2°
Reaches altitude 10° 20:37:00 10° 344° (NNW) 1,949 6.4 -18.7°
Maximum altitude 20:41:13 57° 266° (W) 710 4.1 -19.6°
Drops below altitude 10° 20:45:23 10° 188° (S) 1,922 6.1 -20.4°
Sets 20:47:35 0° 184° (S) 2,816 6.9 -20.9°
